Temp
91 91 91 91 91 92 91 92 94 93 91 94 94 94 94 94 95 94 95 94 92 92 91 90 90 90 92 91 90 90 88 90 90 90 90 90 90 89 89 90 93 93
91 91 90 92 91 91 92 94 93 93 91 91 93 94 94 94 94 94 93 93 93 93 91 91 90 90 90 91 89 90 89 90 90 95 90 89 90 92 92 92 94 94
92 91 93 93 94 93 95 94 93 93 94 95 94 93 96 95 95 93 93 93 94 95 92 90 90 90 92 91 87 88 90 88 89 93 89 89 92 92 93 95 96 96
91 92 94 95 96 96 96 94 94 93 94 95 95 97 95 98 95 95 92 92 92 92 93 93 92 93 91 92 90 88 90 89 90 90 90 90 90 92 90 90 91 91
93 92 94 95 96 95 95 95 96 96 95 95 97 95 94 93 94 95 94 92 91 93 93 92 92 93 92 90 91 89 91 92 91 89 89 89 89 90 93 91 90 92
93 92 92 94 95 95 96 96 96 97 96 97 96 97 96 95 94 95 95 94 95 95 96 95 94 94 94 92 90 90 91 93 94 90 89 88 90 91 92 94 90 90
96 94 95 95 96 96 96 96 96 96 97 98 97 96 97 97 94 94 94 95 97 94 96 94 91 90 93 90 89 88 89 90 89 90 88 88 89 90 93 91 90 91
96 97 95 95 96 96 95 97 98 97 96 96 97 97 97 97 96 96 95 96 96 95 94 95 93 91 94 94 89 87 88 89 90 89 88 87 89 88 88 92 92 90
97 97 97 96 96 97 97 98 98 98 97 97 97 98 97 97 97 97 95 92 94 94 93 94 93 94 94 93 92 91 90 91 91 88 87 87 87 88 90 91 91 90
94 96 98 97 97 97 97 98 99 98 98 98 99 99 99 97 97 97 95 93 94 93 93 93 93 94 94 94 92 92 91 90 90 89 88 84 86 87 90 91 91 90
95 98 96 95 97 98 98 99 99 99 99 98 98 98 99 98 96 96 94 94 96 94 94 92 94 93 93 94 94 92 91 92 88 89 89 88 90 87 89 89 85 87
89 85 88 96 94 97 98 98 99 99 99 100 99 97 97 98 98 97 96 94 94 95 94 93 92 93 91 93 94 95 94 94 92 89 89 90 89 90 92 90 90 91
88 89 87 85 85 85 83 83 91 99 100 99 100 98 97 98 99 97 97 96 94 94 93 93 92 91 90 89 92 92 93 93 92 90 89 89 90 90 95 95 94 94
88 83 78 78 79 79 81 82 80 83 93 98 99 97 98 98 98 98 98 97 96 95 93 91 87 85 86 89 87 89 87 90 90 90 90 89 88 88 89 85 82 84
85 79 78 78 80 82 83 81 79 77 75 80 86 95 100 98 98 98 97 97 97 94 92 92 89 88 84 81 82 83 84 82 81 85 90 88 87 90 90 88 87 87
82 80 78 77 77 77 79 79 80 79 78 78 78 77 85 93 95 94 96 97 96 94 93 89 89 84 78 78 79 80 80 82 79 80 84 86 85 86 87 88 91 90
81 80 78 77 78 77 77 78 80 81 80 78 76 77 79 79 86 93 94 95 96 97 90 80 79 81 74 70 72 74 81 84 81 80 81 83 85 84 84 89 91 91
80 79 78 77 76 77 78 79 80 81 80 79 78 78 78 80 77 77 77 79 81 80 78 82 78 67 65 68 71 71 75 84 87 86 85 85 85 86 88 90 90 90
79 81 81 80 77 77 78 79 79 80 79 79 79 77 75 76 75 75 76 82 85 81 80 79 80 63 64 65 66 66 68 77 84 85 80 80 84 87 89 88 86 83
81 80 80 80 79 78 76 76 78 80 81 80 78 76 76 74 76 76 79 81 82 79 77 80 78 65 61 63 64 63 66 70 85 87 86 83 82 82 85 86 83 77
78 79 79 79 79 79 77 77 76 78 80 81 80 78 77 75 74 75 78 81 81 83 82 79 72 59 61 60 61 62 63 69 81 86 86 81 80 81 80 79 81 81
78 78 78 78 78 78 77 77 77 77 76 75 75 75 77 77 76 77 77 79 79 80 81 75 70 57 59 58 59 60 62 79 84 85 84 83 82 80 82 80 78 76
78 78 77 77 77 77 77 76 75 74 72 73 73 74 74 75 75 75 75 76 77 78 76 73 72 60 56 57 58 57 66 79 82 83 83 84 83 82 78 75 74 75
77 75 74 73 73 73 72 71 72 72 71 72 72 73 72 73 74 73 72 73 74 74 73 70 65 59 55 56 57 57 65 77 79 79 77 80 82 82 81 77 75 75
75 74 73 72 71 71 73 72 72 71 72 72 72 72 71 71 70 70 70 70 71 71 72 69 65 62 56 55 55 56 64 75 77 78 78 78 81 82 83 80 79 76
76 75 74 72 71 72 72 71 71 71 72 71 70 70 69 68 68 68 68 68 68 68 68 69 66 64 60 54 54 55 57 67 72 71 71 72 75 76 78 81 79 79
MSLP
1016.45 1016.57 1016.89 1017.01 1017.13 1016.97 1017.05 1017.21 1017.01 1017.17 1017.29 1017.05 1017.21 1017.05 1017.01 1016.93 1016.81 1016.93 1016.97 1017.09 1017.41 1017.61 1017.77 1017.93 1018.01 1018.17 1018.13 1018.17 1018.25 1018.37 1018.61 1018.37 1018.45 1018.53 1018.53 1018.53 1018.65 1018.73 1019.05 1018.73 1018.09 1018.09
1016.29 1016.33 1016.45 1016.57 1016.77 1016.77 1016.73 1016.61 1016.77 1016.89 1017.13 1017.13 1016.89 1016.73 1016.77 1016.81 1016.93 1016.97 1017.13 1017.21 1017.33 1017.41 1017.53 1017.73 1017.97 1017.97 1018.01 1018.05 1018.21 1018.37 1018.45 1018.41 1018.45 1017.89 1018.37 1018.53 1018.41 1018.33 1018.49 1018.37 1018.09 1017.73
1016.05 1016.21 1016.33 1016.49 1016.45 1016.57 1016.45 1016.41 1016.45 1016.65 1016.77 1016.69 1016.61 1016.69 1016.65 1016.61 1016.77 1016.93 1017.01 1017.09 1017.13 1017.13 1017.41 1017.61 1017.77 1017.73 1017.77 1017.81 1018.21 1018.29 1018.33 1018.45 1018.45 1017.89 1018.25 1018.41 1018.05 1018.05 1017.89 1017.73 1017.53 1017.41
1015.93 1015.89 1015.93 1015.93 1015.81 1015.93 1016.05 1016.17 1016.37 1016.45 1016.33 1016.49 1016.53 1016.29 1016.41 1016.17 1016.45 1016.69 1016.93 1017.05 1017.17 1017.17 1017.09 1017.21 1017.41 1017.37 1017.57 1017.61 1017.89 1018.21 1018.05 1018.13 1018.05 1017.89 1018.05 1018.05 1018.05 1017.97 1018.09 1018.01 1017.89 1018.01
1015.61 1015.77 1015.57 1015.53 1015.49 1015.45 1015.61 1015.93 1016.05 1016.13 1016.21 1016.13 1016.05 1016.05 1016.25 1016.45 1016.41 1016.45 1016.65 1016.89 1017.05 1017.09 1017.09 1017.21 1017.17 1017.25 1017.25 1017.45 1017.61 1017.93 1017.73 1017.77 1017.65 1017.81 1018.05 1018.25 1018.01 1018.01 1017.77 1017.77 1017.85 1017.85
1015.25 1015.33 1015.49 1015.49 1015.41 1015.53 1015.61 1015.73 1015.81 1015.73 1015.85 1015.93 1016.01 1015.77 1015.97 1016.25 1016.45 1016.41 1016.41 1016.69 1016.65 1016.77 1016.69 1016.77 1016.97 1016.97 1017.05 1017.25 1017.53 1017.61 1017.61 1017.49 1017.25 1017.49 1017.93 1018.05 1017.89 1017.61 1017.69 1017.33 1017.69 1017.81
1014.97 1015.21 1015.37 1015.33 1015.45 1015.41 1015.57 1015.49 1015.45 1015.49 1015.53 1015.45 1015.49 1015.81 1015.69 1015.97 1016.37 1016.37 1016.37 1016.37 1016.25 1016.41 1016.41 1016.45 1016.81 1017.21 1016.85 1017.21 1017.41 1017.61 1017.49 1017.41 1017.57 1017.41 1017.73 1017.89 1017.69 1017.65 1017.29 1017.53 1017.41 1017.49
1014.61 1014.73 1015.01 1015.17 1015.41 1015.33 1015.57 1015.45 1015.33 1015.37 1015.41 1015.45 1015.69 1015.53 1015.49 1015.69 1015.93 1016.05 1016.21 1016.17 1016.29 1016.33 1016.29 1016.29 1016.49 1016.73 1016.65 1016.57 1017.29 1017.57 1017.65 1017.73 1017.57 1017.49 1017.69 1017.93 1017.61 1017.81 1017.69 1017.33 1017.21 1017.45
1014.37 1014.49 1014.65 1014.97 1015.17 1015.17 1015.29 1015.25 1015.17 1015.25 1015.21 1015.45 1015.53 1015.45 1015.37 1015.49 1015.61 1015.69 1015.85 1016.37 1016.21 1016.29 1016.33 1016.33 1016.37 1016.49 1016.49 1016.61 1016.73 1016.97 1017.29 1017.29 1017.33 1017.69 1017.81 1017.97 1017.93 1017.73 1017.53 1017.21 1017.29 1017.29
1014.57 1014.45 1014.41 1014.61 1014.85 1014.81 1015.01 1014.89 1014.81 1014.93 1014.97 1015.17 1015.17 1015.17 1015.29 1015.37 1015.41 1015.53 1015.73 1015.93 1016.13 1016.25 1016.33 1016.33 1016.33 1016.37 1016.33 1016.33 1016.61 1016.69 1016.81 1017.01 1017.01 1017.21 1017.57 1017.97 1017.85 1017.65 1017.29 1017.05 1017.01 1017.05
1014.37 1014.09 1014.45 1014.69 1014.57 1014.45 1014.53 1014.53 1014.61 1014.61 1014.53 1014.77 1014.89 1015.09 1015.01 1015.09 1015.33 1015.37 1015.65 1015.81 1016.01 1016.17 1016.21 1016.29 1016.17 1016.17 1016.25 1016.21 1016.01 1016.33 1016.45 1016.57 1017.05 1016.93 1016.97 1017.09 1016.93 1017.13 1017.01 1017.01 1017.53 1017.49
1015.17 1015.69 1015.13 1014.33 1014.77 1014.53 1014.45 1014.45 1014.37 1014.41 1014.33 1014.25 1014.45 1014.85 1014.89 1014.85 1014.93 1015.05 1015.29 1015.61 1015.65 1015.69 1015.77 1015.85 1015.97 1015.97 1016.05 1015.97 1015.93 1015.73 1015.73 1015.89 1016.17 1016.61 1016.73 1016.73 1016.65 1016.61 1016.45 1016.69 1016.85 1016.49
1015.33 1015.21 1015.41 1015.69 1015.69 1015.77 1015.85 1016.05 1015.53 1014.61 1014.29 1014.29 1014.13 1014.41 1014.73 1014.77 1014.73 1014.85 1014.81 1015.13 1015.33 1015.37 1015.57 1015.65 1015.93 1016.09 1015.97 1016.05 1015.85 1015.81 1015.77 1015.97 1016.13 1016.33 1016.57 1016.69 1016.61 1016.41 1015.89 1015.81 1015.97 1015.93
1015.09 1015.65 1016.29 1016.29 1016.01 1016.21 1016.49 1015.97 1016.33 1016.89 1015.61 1014.53 1014.21 1014.45 1014.57 1014.65 1014.69 1014.57 1014.57 1014.65 1014.93 1015.05 1015.21 1015.49 1016.05 1016.33 1016.37 1016.21 1016.41 1016.33 1016.73 1016.53 1016.53 1016.45 1016.41 1016.53 1016.41 1016.41 1016.33 1016.41 1016.81 1017.01
1015.09 1015.37 1015.17 1015.33 1015.37 1015.45 1015.57 1015.77 1016.13 1016.73 1017.25 1016.65 1015.89 1014.93 1014.41 1014.45 1014.41 1014.41 1014.45 1014.53 1014.61 1014.89 1014.93 1015.13 1015.65 1016.01 1016.77 1017.13 1016.85 1016.69 1016.89 1017.21 1017.41 1017.29 1016.49 1016.57 1016.53 1016.37 1016.17 1016.25 1016.33 1016.37
1015.13 1015.37 1015.61 1015.69 1015.89 1015.85 1015.49 1015.33 1015.57 1016.05 1016.53 1016.21 1016.21 1017.05 1016.41 1014.89 1014.73 1014.85 1014.69 1014.65 1014.69 1014.89 1015.01 1015.53 1015.81 1016.17 1016.73 1016.73 1017.09 1017.01 1017.01 1017.09 1017.17 1017.29 1017.13 1016.73 1016.81 1016.69 1016.61 1016.37 1015.97 1016.01
1015.29 1015.41 1015.29 1015.45 1015.69 1015.93 1015.97 1016.01 1015.73 1015.65 1016.01 1016.33 1016.45 1016.13 1016.25 1016.49 1016.05 1015.49 1015.37 1015.05 1014.93 1014.89 1015.65 1017.01 1017.69 1017.37 1017.33 1017.41 1017.45 1017.45 1017.17 1016.89 1017.17 1017.41 1017.41 1017.17 1016.61 1016.69 1016.57 1016.17 1015.89 1015.85
1015.33 1015.25 1015.37 1015.49 1015.57 1015.73 1015.77 1015.73 1015.65 1015.65 1015.81 1016.13 1016.21 1016.37 1016.25 1016.21 1016.97 1017.17 1017.01 1016.89 1016.81 1017.21 1017.81 1017.37 1017.73 1017.85 1017.89 1017.65 1017.29 1017.29 1017.21 1016.85 1016.53 1016.65 1016.77 1016.57 1016.45 1016.17 1015.89 1015.77 1015.89 1015.93
1015.29 1015.25 1015.21 1015.37 1015.73 1015.89 1015.69 1015.57 1015.65 1015.81 1015.85 1015.89 1016.09 1016.29 1016.29 1016.29 1016.37 1016.45 1016.69 1016.45 1016.41 1016.97 1017.25 1017.29 1017.17 1017.93 1017.81 1017.77 1017.77 1017.61 1017.45 1017.17 1017.01 1016.73 1016.89 1016.81 1016.45 1015.93 1015.73 1015.85 1016.09 1016.45
1014.89 1015.17 1015.33 1015.33 1015.45 1015.65 1015.81 1015.97 1015.77 1015.69 1015.69 1015.77 1016.01 1016.05 1016.17 1016.53 1016.57 1016.53 1016.37 1016.29 1016.41 1016.77 1017.01 1017.13 1017.49 1018.21 1018.21 1017.93 1017.77 1017.61 1017.45 1017.41 1016.61 1016.33 1016.13 1016.25 1016.41 1016.69 1016.45 1016.13 1016.13 1016.53
1015.21 1015.25 1015.41 1015.41 1015.49 1015.61 1015.77 1015.81 1015.93 1015.73 1015.61 1015.65 1015.89 1016.09 1016.33 1016.49 1016.53 1016.57 1016.41 1016.29 1016.49 1016.49 1016.69 1017.25 1018.01 1018.29 1018.13 1018.09 1017.97 1017.73 1017.45 1017.29 1016.69 1016.13 1015.97 1016.33 1016.53 1016.69 1016.89 1016.93 1016.49 1016.53
1015.25 1015.33 1015.53 1015.65 1015.65 1015.77 1015.85 1015.77 1015.81 1015.81 1015.97 1016.13 1016.29 1016.57 1016.45 1016.37 1016.45 1016.37 1016.53 1016.45 1016.37 1016.53 1016.77 1017.53 1018.13 1018.37 1018.13 1017.93 1017.85 1017.69 1017.45 1016.81 1016.33 1016.17 1016.17 1016.17 1016.17 1016.13 1016.01 1016.05 1016.49 1017.25
1015.33 1015.49 1015.73 1015.77 1015.77 1015.85 1015.81 1015.93 1016.09 1016.09 1016.29 1016.37 1016.65 1016.73 1016.73 1016.77 1016.89 1016.89 1016.69 1016.61 1016.61 1016.73 1017.13 1017.77 1018.29 1018.69 1018.49 1018.29 1018.13 1017.93 1017.49 1016.77 1016.33 1016.37 1016.25 1016.09 1016.21 1016.13 1016.21 1016.09 1016.17 1016.57
1015.57 1015.77 1016.01 1016.09 1016.17 1016.13 1016.29 1016.49 1016.41 1016.53 1016.69 1016.49 1016.69 1016.89 1017.01 1017.05 1017.09 1017.17 1017.21 1017.13 1017.13 1017.25 1017.53 1018.17 1018.81 1019.01 1018.81 1018.57 1018.33 1018.09 1017.69 1017.09 1016.61 1016.81 1017.17 1016.61 1016.25 1016.21 1016.21 1016.41 1016.37 1016.73
1016.01 1016.13 1016.21 1016.37 1016.53 1016.69 1016.45 1016.49 1016.69 1016.77 1016.77 1016.65 1016.85 1016.93 1017.21 1017.37 1017.57 1017.69 1017.81 1017.77 1017.57 1017.61 1017.89 1018.53 1019.09 1019.29 1019.13 1018.89 1018.73 1018.37 1017.77 1017.17 1016.93 1016.97 1017.05 1017.05 1016.65 1016.49 1016.21 1016.49 1016.77 1017.29
1016.05 1016.25 1016.37 1016.57 1016.65 1016.73 1016.77 1016.77 1016.81 1016.85 1016.81 1017.21 1017.45 1017.49 1017.65 1017.89 1018.13 1018.41 1018.45 1018.29 1017.93 1017.89 1018.41 1018.93 1019.13 1019.13 1019.09 1018.97 1018.97 1018.73 1018.09 1017.69 1017.61 1018.09 1018.29 1018.01 1017.57 1017.37 1017.13 1016.89 1017.05 1017.13
Wind_Speed
9 9 9 8 8 7 7 7 7 7 6 5 6 6 5 5 5 4 5 5 6 6 6 5 5 5 5 5 4 3 5 6 2 2 4 3 5 3 5 9 6 4
10 10 8 9 8 8 7 7 7 6 6 5 5 3 4 4 6 5 5 6 6 7 6 6 5 7 6 6 7 6 5 6 6 5 5 6 5 5 6 8 8 6
11 11 11 11 10 10 10 9 7 7 7 7 7 5 5 6 6 7 6 6 6 7 7 6 8 7 7 5 5 6 5 5 7 6 6 7 6 5 7 7 7 8
12 11 11 12 10 10 10 9 9 7 7 7 7 8 7 5 7 7 7 7 6 6 6 7 8 7 7 7 6 7 8 7 6 6 5 5 6 6 7 6 6 8
13 12 11 11 10 9 9 9 10 9 9 8 8 8 6 6 5 7 7 8 7 7 7 7 7 8 7 7 7 7 7 7 7 7 6 6 7 8 8 8 9 9
11 10 10 10 9 10 10 10 10 10 10 10 9 8 8 8 8 7 8 8 9 9 9 8 9 8 8 6 7 6 7 8 7 8 8 8 8 8 9 8 7 9
12 11 12 11 11 10 10 10 9 10 9 9 8 9 8 9 9 9 9 8 9 8 9 8 6 7 7 8 5 7 6 8 8 6 7 8 7 9 8 8 7 7
12 11 11 10 11 11 11 11 10 10 10 9 10 8 9 9 9 9 9 9 9 9 8 8 8 8 7 7 8 7 7 5 9 8 7 8 8 6 8 7 7 7
10 10 10 12 12 11 12 12 11 11 9 10 10 9 9 9 9 9 8 8 9 8 8 8 7 8 8 8 8 8 9 10 5 7 6 7 9 8 9 8 8 9
10 9 11 11 11 11 12 12 11 11 10 11 11 10 9 8 9 8 9 8 7 8 8 8 9 9 8 9 9 10 8 8 7 5 6 6 10 9 10 10 9 9
9 10 11 11 11 10 12 12 12 12 11 12 11 11 10 9 9 9 9 9 9 9 9 9 10 10 10 10 10 9 11 8 9 8 7 9 7 6 9 6 6 11
6 8 11 10 10 11 12 12 12 12 12 11 11 11 11 11 10 10 10 10 10 9 10 10 10 10 11 10 10 10 10 9 7 7 9 9 9 10 10 8 10 10
6 7 6 10 4 5 7 10 12 12 12 12 10 11 11 11 11 11 9 9 10 10 9 8 8 9 9 10 10 10 10 9 7 6 9 8 8 9 10 9 9 10
7 3 5 8 8 9 8 3 3 14 15 11 10 10 11 12 11 12 11 10 10 10 10 7 2 5 7 8 7 6 6 9 7 8 7 4 2 6 6 5 7 12
4 5 7 6 4 4 4 3 0 2 4 11 14 12 10 10 11 11 10 10 10 10 10 8 8 8 2 4 3 4 4 3 9 12 7 4 4 5 7 7 8 7
6 4 3 2 4 5 5 4 3 2 2 2 1 11 15 9 8 9 10 10 9 8 8 4 2 4 6 4 6 2 3 1 2 5 7 5 5 7 7 10 9 6
5 4 6 7 3 3 3 4 5 4 2 2 3 3 2 8 13 10 9 10 9 8 4 10 2 5 5 3 8 11 8 5 4 5 10 10 7 8 9 9 9 8
6 6 5 4 6 7 7 7 6 5 5 4 2 3 1 2 4 5 9 10 10 11 4 4 6 11 10 6 0 4 7 7 7 6 7 9 7 9 9 7 7 5
9 8 7 8 7 7 7 6 6 7 6 5 4 2 1 1 2 3 3 3 3 5 8 6 5 10 8 10 7 8 8 9 6 10 5 9 9 8 7 6 4 2
3 4 5 6 6 6 5 4 6 6 6 5 3 3 3 3 3 1 1 1 5 7 5 5 7 11 11 11 10 10 10 10 7 8 7 4 8 8 9 7 6 4
3 2 3 4 4 4 4 4 6 6 6 4 3 3 4 4 3 4 3 4 4 6 6 5 5 7 9 10 10 11 11 10 7 8 4 4 8 9 8 10 7 4
3 3 2 3 4 4 6 6 4 2 0 3 3 4 4 5 4 4 3 3 4 3 3 8 7 11 9 9 9 11 10 6 6 6 6 5 4 6 8 9 9 9
3 2 2 3 4 6 6 5 4 4 5 3 2 3 3 5 5 4 3 5 6 6 7 7 7 9 11 12 12 13 10 6 6 6 6 5 4 6 6 5 5 5
6 8 9 7 6 3 5 5 5 4 3 2 3 4 4 4 5 6 7 6 6 7 7 6 7 9 12 12 13 14 11 7 5 4 7 8 4 4 1 2 3 7
9 8 7 7 8 6 4 5 4 4 5 4 5 4 5 4 5 7 8 6 6 7 10 8 6 6 11 13 14 15 11 8 8 8 5 6 7 7 6 4 3 8
8 7 7 8 6 6 6 6 5 4 6 6 6 6 6 6 6 6 7 7 7 8 8 5 5 6 10 13 13 14 16 9 8 9 8 9 8 8 7 6 7 4
Wind_Direction
194 196 198 202 210 216 208 209 209 201 214 223 208 205 208 192 211 204 204 177 186 201 191 194 194 203 206 204 209 235 229 240 226 209 236 253 244 291 304 270 254 263
201 198 199 203 205 210 221 217 208 218 196 222 242 200 203 191 198 206 210 207 191 207 195 188 209 210 215 209 194 220 229 225 236 217 221 233 260 251 264 272 264 267
202 200 200 208 203 203 211 206 212 207 209 210 209 219 209 199 203 197 209 220 218 210 196 195 207 211 211 205 172 219 224 235 235 234 205 227 247 258 253 267 268 242
207 208 207 208 214 203 206 208 204 212 222 210 214 204 216 211 199 196 199 213 221 230 214 206 214 213 212 213 207 222 220 222 225 237 235 238 242 250 254 261 269 286
204 209 218 213 215 217 209 211 214 204 217 216 211 215 202 219 222 206 197 198 213 218 218 219 211 222 214 213 210 227 231 228 223 224 231 237 230 229 238 234 235 241
206 212 212 227 218 217 219 215 216 223 211 212 220 211 205 203 215 223 214 208 204 214 218 213 215 217 218 216 217 231 240 234 235 212 217 230 236 230 232 236 242 248
206 203 214 216 224 221 229 225 222 221 224 223 212 218 216 204 208 220 226 222 226 214 218 214 203 232 214 218 203 231 237 241 242 241 216 230 236 249 257 263 254 255
210 200 210 218 219 227 224 230 229 221 222 224 229 221 219 220 210 211 221 225 227 230 232 223 207 208 228 221 211 194 230 268 243 235 237 246 257 260 261 258 261 254
213 211 208 213 221 225 228 229 226 229 225 228 229 227 219 228 223 224 217 222 229 232 229 231 228 219 220 233 235 225 221 234 235 240 242 262 258 252 253 251 251 253
218 225 221 218 222 223 228 227 228 222 224 229 229 232 227 216 232 231 231 225 229 230 231 232 226 225 231 227 226 232 233 235 246 243 232 214 245 235 241 245 254 247
250 218 220 232 231 230 225 225 228 232 223 220 225 231 230 228 215 225 233 226 225 227 231 229 231 228 226 234 232 220 229 222 222 235 248 241 253 278 272 274 263 259
266 305 277 233 234 238 233 232 230 233 232 222 223 222 229 230 228 219 219 224 226 231 231 228 228 230 228 230 235 238 233 228 226 207 238 248 241 233 239 233 255 254
255 269 284 295 321 321 352 338 299 261 235 236 224 223 227 230 228 230 222 223 222 228 234 236 242 241 233 229 234 243 245 241 240 202 232 245 253 264 257 259 266 255
220 107 18 316 332 339 317 293 331 308 296 266 242 234 228 229 234 228 222 223 229 223 222 220 222 304 284 252 241 260 296 282 286 259 250 258 292 283 306 339 301 301
177 144 200 230 259 280 288 323 24 175 281 322 318 282 245 238 235 244 246 228 227 236 230 203 199 212 190 346 345 279 238 241 273 284 278 269 271 275 258 249 249 241
170 162 168 251 282 268 235 212 239 286 336 295 67 325 303 283 258 256 255 252 241 237 238 199 254 71 46 335 272 276 288 335 25 277 277 261 243 253 264 267 268 285
215 183 200 196 194 257 267 262 242 253 231 234 274 228 212 323 316 289 286 279 270 260 355 56 351 19 358 105 0 314 280 252 203 253 263 256 243 246 257 262 260 267
227 189 203 187 200 226 226 218 214 216 216 220 199 254 314 139 82 17 343 348 349 15 59 82 64 20 7 37 149 302 311 286 267 253 259 267 284 279 264 265 279 286
221 217 206 205 202 233 244 218 207 221 222 218 198 142 17 100 147 139 207 245 325 21 30 36 80 39 15 17 10 348 343 319 255 262 289 288 255 259 283 292 298 310
263 228 212 210 212 208 214 215 204 206 221 220 191 134 147 131 118 71 61 44 76 101 98 73 48 15 7 6 1 350 342 327 285 279 257 281 314 297 277 278 233 210
262 205 229 212 196 205 226 231 244 239 217 192 172 148 150 147 138 141 134 116 97 109 127 104 67 25 27 8 3 351 341 318 284 279 274 249 253 260 235 253 290 303
283 266 233 242 223 216 221 214 212 218 240 36 70 73 79 101 109 123 132 109 111 110 123 96 57 24 14 12 2 352 329 295 289 286 288 292 315 291 319 353 352 334
9 341 268 239 237 229 212 176 164 118 74 65 105 129 120 95 99 82 44 47 66 78 84 78 62 27 25 21 12 357 336 309 299 307 297 297 307 327 5 347 327 341
50 54 52 50 35 68 76 50 58 67 108 126 135 134 97 74 92 90 71 47 58 74 82 86 63 30 27 24 19 10 350 327 321 295 290 303 335 328 333 224 271 348
69 71 75 75 66 37 68 117 108 91 54 69 65 66 86 84 74 85 88 78 81 87 80 78 76 53 35 28 18 19 12 354 5 348 358 351 351 356 356 2 66 108
83 88 81 80 83 72 44 49 54 56 76 76 69 60 70 68 68 66 74 69 56 57 65 68 77 68 45 34 28 18 20 15 26 17 11 358 4 1 353 16 19 40